User: anonymous   Login
Location: Unspecified
(0.0000°N, 0.0000°E)
Time: 17:12:35
(UTC+02:00)
Language:

Sapphire - Orbit

View from above orbital plane
View from above orbital plane
View from above satellite
View from above satellite

Ground track
Ground track

The orbit data is extracted from the following two-line orbital elements,

1 26932U 01043D   17086.88956136 -.00000008 +00000-0 +28880-4 0  9997
2 26932 067.0557 303.1759 0007737 290.2978 069.7291 14.30243449808748
Epoch (UTC): 27 March 2017 21:20:58
Eccentricity: 0.0007737
inclination: 67.0557°
perigee height: 785 km
apogee height: 796 km
right ascension of ascending node: 303.1759°
argument of perigee: 290.2978°
revolutions per day: 14.30243449
mean anomaly at epoch: 69.7291°
orbit number at epoch: 80874

The dashed part of the orbit path shows where the satellite is in the earth's shadow,  

DLR